EW4174 Weather Reports


time (UTC)temp
C
wind
direction
speed
KPH
gust
KPH
rain 1hr
cm
rain 24hr
cm
rain mn
cm
humidity
%
barometer
mb
20260506214551 27 5 19.3 29.0 0.00 0.00 0.00 78 1007.1
20260506213045 28 360 12.9 24.1 0.00 0.00 0.00 79 1007.0
20260506211547 28 31 8.0 14.5 0.00 0.00 0.00 78 1007.1
20260506210035 29 17 6.4 12.9 0.00 0.00 0.00 77 1007.1
20260506204531 29 15 6.4 11.3 0.00 0.00 0.00 78 1007.1
20260506203028 29 89 1.6 6.4 0.00 0.00 0.00 78 1007.1
20260506201526 29 91 3.2 6.4 0.00 0.00 0.00 80 1007.0
20260506200017 29 67 3.2 9.7 0.00 0.00 0.00 80 1007.2
20260506194513 28 62 1.6 8.0 0.00 0.00 0.00 80 1007.3
20260506193008 28 26 4.8 12.9 0.00 0.00 0.00 81 1007.4
20260506191504 28 27 6.4 12.9 0.00 0.00 0.00 82 1007.5
20260506190059 28 97 3.2 9.7 0.00 0.00 0.00 83 1007.7
20260506184555 27 87 0.0 11.3 0.00 0.00 0.00 86 1007.9
20260506183051 27 56 6.4 11.3 0.00 0.00 0.00 87 1008.0
20260506181546 27 14 4.8 9.7 0.00 0.00 0.00 87 1008.2
20260506180042 27 5 6.4 14.5 0.00 0.00 0.00 88 1008.4
20260506174538 26 180 1.6 9.7 0.00 0.00 0.00 88 1008.6
20260506173033 26 65 4.8 12.9 0.00 0.00 0.00 90 1008.7
20260506171532 26 28 4.8 9.7 0.00 0.00 0.00 90 1008.9
20260506170023 26 109 1.6 4.8 0.00 0.00 0.00 91 1009.1
20260506164521 26 109 3.2 4.8 0.00 0.00 0.00 91 1009.3
20260506163015 25 109 3.2 6.4 0.00 0.00 0.00 92 1009.2
20260506161511 25 130 4.8 8.0 0.00 0.00 0.00 92 1008.9
20260506160006 25 130 6.4 12.9 0.00 0.00 0.00 92 1008.6
20260506154502 25 131 4.8 11.3 0.00 0.00 0.00 93 1008.2
20260506153057 25 129 6.4 14.5 0.00 0.00 0.00 93 1008.1
20260506151552 25 133 3.2 11.3 0.00 0.00 0.00 94 1008.2
20260506150057 25 142 6.4 16.1 0.00 0.00 0.00 94 1008.0
20260506144600 24 146 9.7 14.5 0.00 0.00 0.00 94 1007.7
20260506143049 24 120 4.8 11.3 0.00 0.00 0.00 94 1007.7
20260506141535 24 119 4.8 14.5 0.00 0.00 0.00 95 1007.4
20260506140053 23 123 9.7 16.1 0.00 0.00 0.00 95 1007.0
20260506134536 23 125 9.7 14.5 0.00 0.00 0.00 95 1007.1
20260506133031 23 123 8.0 16.1 0.00 0.00 0.00 95 1007.0
20260506131541 23 117 4.8 11.3 0.00 0.00 0.00 94 1007.2
20260506130031 23 130 4.8 11.3 0.00 0.00 0.00 94 1007.0
20260506124529 23 165 3.2 8.0 0.00 0.00 0.00 95 1007.1
20260506123037 23 138 4.8 8.0 0.00 0.00 0.00 95 1006.9
20260506121528 23 149 3.2 8.0 0.00 0.00 0.00 94 1006.9
20260506120032 23 149 3.2 8.0 0.00 0.00 0.00 94 1006.8
20260506114527 22 150 1.6 4.8 0.00 0.00 0.00 94 1006.7
20260506113033 23 150 3.2 8.0 0.00 0.00 0.00 94 1006.7
20260506111525 22 150 3.2 9.7 0.00 0.00 0.00 94 1006.7
20260506110037 23 151 3.2 4.8 0.00 0.00 0.00 94 1006.5
20260506104527 23 151 1.6 3.2 0.00 0.00 0.00 94 1006.6
20260506103025 23 151 1.6 3.2 0.00 0.00 0.00 94 1006.6
20260506101526 22 151 3.2 8.0 0.00 0.00 0.00 94 1006.3
20260506100022 22 151 0.0 3.2 0.00 0.00 0.00 94 1006.3
20260506094526 22 151 0.0 3.2 0.00 0.00 0.00 94 1006.2
20260506093030 22 151 0.0 1.6 0.00 0.00 0.00 94 1006.3
20260506091520 22 151 0.0 3.2 0.00 0.00 0.00 94 1006.4
20260506090019 22 151 3.2 9.7 0.00 0.00 0.00 94 1006.3
20260506084618 22 151 4.8 9.7 0.00 0.00 0.00 93 1006.2
20260506083027 23 149 4.8 11.3 0.00 0.00 0.00 93 1006.1
20260506081517 23 150 4.8 9.7 0.00 0.00 0.00 93 1006.2
20260506073010 23 360 6.4 12.9 0.00 0.00 0.00 93 1006.6
20260506071507 23 153 6.4 16.1 0.00 0.00 0.00 92 1006.8
20260506061503 23 159 12.9 24.1 0.00 0.00 0.00 92 1006.9
20260506044552 24 157 12.9 25.7 0.00 0.00 0.00 90 1007.0
20260506043043 24 169 17.7 22.5 0.00 0.00 0.00 90 1006.9
20260506041542 25 138 20.9 27.4 0.00 0.00 0.00 90 1006.8
20260506040036 25 153 17.7 25.7 0.00 0.00 0.00 89 1006.9
20260506034530 25 153 14.5 22.5 0.00 0.00 0.00 89 1006.9
20260506033028 25 146 11.3 22.5 0.00 0.00 0.00 89 1006.7
20260506031538 25 133 11.3 19.3 0.00 0.00 0.00 88 1006.5
20260506030016 25 134 9.7 17.7 0.00 0.00 0.00 88 1006.3
20260506024515 25 139 12.9 25.7 0.00 0.00 0.00 88 1006.1
20260506023008 25 142 16.1 24.1 0.00 0.00 0.00 87 1005.8
20260506021503 25 136 14.5 22.5 0.00 0.00 0.00 87 1005.7
20260506020059 25 360 11.3 24.1 0.00 0.00 0.00 86 1005.6
20260506014554 26 144 8.0 16.1 0.00 0.00 0.00 86 1005.3
20260506013103 26 157 9.7 19.3 0.00 0.00 0.00 87 1005.1
20260506011545 26 123 8.0 17.7 0.00 0.00 0.00 86 1004.7
20260506010053 26 136 9.7 17.7 0.00 0.00 0.00 85 1004.5
20260506004535 26 130 12.9 20.9 0.00 0.00 0.00 84 1004.3
20260506003031 27 133 11.3 17.7 0.00 0.00 0.00 83 1004.2
20260506001529 27 117 16.1 25.7 0.00 0.00 0.00 82 1004.1
20260506000021 27 136 16.1 27.4 0.00 0.00 0.00 81 1003.9
20260505234517 27 140 14.5 20.9 0.00 0.00 0.00 81 1003.8
20260505233012 27 130 16.1 25.7 0.00 0.00 0.00 80 1003.8
20260505231511 28 360 17.7 25.7 0.00 0.00 0.00 79 1003.7
20260505230004 28 161 14.5 24.1 0.00 0.00 0.00 79 1003.7
20260505224559 29 157 12.9 20.9 0.00 0.00 0.00 77 1003.8
20260505223055 29 139 14.5 24.1 0.00 0.00 0.00 77 1003.8
20260505221551 28 157 14.5 24.1 0.00 0.00 0.00 77 1004.0
20260505220045 29 106 11.3 29.0 0.00 0.00 0.00 77 1004.1